N0RWU Weather Reports


Display with metric or nautical units.
time (UTC)temp
F
wind
direction
speed
MPH
gust
MPH
rain 1hr
in
rain 24hr
in
rain mn
in
humidity
%
barometer
mb
20260503230827 77 254 6.0 7.0 0.00 0.00 0.00 23 998.4
20260503225828 78 270 4.0 5.0 0.00 0.00 0.00 23 998.5
20260503223827 78 256 7.0 9.0 0.00 0.00 0.00 23 998.4
20260503221827 78 116 9.0 12.0 0.00 0.00 0.00 24 998.5
20260503220826 77 248 6.0 7.0 0.00 0.00 0.00 24 998.7
20260503215826 77 252 6.0 9.0 0.00 0.00 0.00 24 998.6
20260503214828 76 237 6.0 10.0 0.00 0.00 0.00 25 998.7
20260503213827 77 248 8.0 11.0 0.00 0.00 0.00 23 998.7
20260503212827 77 230 9.0 11.0 0.00 0.00 0.00 23 998.7
20260503211827 77 114 5.0 9.0 0.00 0.00 0.00 24 998.8
20260503210827 77 246 10.0 13.0 0.00 0.00 0.00 24 998.8
20260503205827 77 240 9.0 11.0 0.00 0.00 0.00 25 998.9
20260503204827 78 267 4.0 7.0 0.00 0.00 0.00 26 998.9
20260503203827 77 252 5.0 8.0 0.00 0.00 0.00 26 999.0
20260503202827 77 254 7.0 10.0 0.00 0.00 0.00 25 999.1
20260503201827 77 235 7.0 8.0 0.00 0.00 0.00 25 999.2
20260503200827 76 255 11.0 13.0 0.00 0.00 0.00 25 999.3
20260503195827 76 232 9.0 10.0 0.00 0.00 0.00 26 999.4
20260503193827 76 261 10.0 13.0 0.00 0.00 0.00 27 999.3
20260503191827 75 263 8.0 10.0 0.00 0.00 0.00 29 999.4
20260503190827 74 240 10.0 14.0 0.00 0.00 0.00 28 999.4
20260503185827 76 247 7.0 10.0 0.00 0.00 0.00 31 999.4
20260503184827 75 252 3.0 4.0 0.00 0.00 0.00 32 999.5
20260503183827 75 267 6.0 10.0 0.00 0.00 0.00 29 999.4
20260503182826 75 243 8.0 10.0 0.00 0.00 0.00 30 999.6
20260503181828 74 272 7.0 8.0 0.00 0.00 0.00 30 999.6
20260503180827 74 243 5.0 7.0 0.00 0.00 0.00 32 999.5
20260503175826 73 270 7.0 13.0 0.00 0.00 0.00 32 999.6
20260503173827 72 234 14.0 19.0 0.00 0.00 0.00 31 999.5
20260503172827 73 244 7.0 8.0 0.00 0.00 0.00 33 999.7
20260503171827 72 255 10.0 13.0 0.00 0.00 0.00 33 999.8
20260503170827 71 249 16.0 21.0 0.00 0.00 0.00 33 999.6
20260503150827 66 237 10.0 13.0 0.00 0.00 0.00 42 999.7
20260503130827 58 220 5.0 6.0 0.00 0.00 0.00 49 1000.2
20260503110827 52 199 8.0 10.0 0.00 0.00 0.00 53 1000.3
20260503080827 54 216 8.0 11.0 0.00 0.00 0.00 47 1002.4
20260503072827 54 172 5.0 7.0 0.00 0.00 0.00 48 1003.3
20260503071827 53 163 4.0 5.0 0.00 0.00 0.00 48 1003.1
20260503070827 53 168 4.0 5.0 0.00 0.00 0.00 48 1003.1
20260503054827 54 186 7.0 11.0 0.00 0.00 0.00 47 1004.1
20260503053827 54 92 3.0 5.0 0.00 0.00 0.00 47 1004.3
20260503052828 54 190 6.0 7.0 0.00 0.00 0.00 47 1004.4
20260503051828 54 229 6.0 7.0 0.00 0.00 0.00 47 1004.4
20260503050827 54 187 6.0 7.0 0.00 0.00 0.00 47 1004.4
20260503044827 55 216 4.0 4.0 0.00 0.00 0.00 46 1004.5
20260503043827 55 180 2.0 4.0 0.00 0.00 0.00 45 1004.6
20260503042827 55 207 4.0 7.0 0.00 0.00 0.00 44 1004.8
20260503041827 56 212 4.0 5.0 0.00 0.00 0.00 43 1004.9
20260503040827 56 173 3.0 4.0 0.00 0.00 0.00 43 1005.1
20260503035827 56 174 5.0 6.0 0.00 0.00 0.00 42 1005.1
20260503034827 56 200 4.0 5.0 0.00 0.00 0.00 42 1005.2
20260503033827 56 131 4.0 5.0 0.00 0.00 0.00 41 1005.7
20260503032827 57 165 6.0 7.0 0.00 0.00 0.00 41 1005.7
20260503031827 57 164 6.0 9.0 0.00 0.00 0.00 40 1005.7
20260503030828 57 192 5.0 7.0 0.00 0.00 0.00 40 1005.8
20260503024827 58 183 2.0 4.0 0.00 0.00 0.00 39 1005.8
20260503023827 58 184 5.0 6.0 0.00 0.00 0.00 39 1006.0
20260503022827 58 194 6.0 7.0 0.00 0.00 0.00 38 1006.0
20260503021826 59 207 3.0 3.0 0.00 0.00 0.00 38 1005.9
20260503020827 59 204 3.0 4.0 0.00 0.00 0.00 37 1005.9
20260503015827 59 168 2.0 4.0 0.00 0.00 0.00 36 1006.0
20260503014827 60 216 4.0 5.0 0.00 0.00 0.00 36 1005.9
20260503013828 60 193 2.0 4.0 0.00 0.00 0.00 35 1005.8
20260503012827 60 181 2.0 3.0 0.00 0.00 0.00 35 1005.9
20260503010827 61 222 2.0 3.0 0.00 0.00 0.00 33 1006.0
20260503005827 62 225 2.0 2.0 0.00 0.00 0.00 32 1006.0
20260503004827 64 236 1.0 2.0 0.00 0.00 0.00 31 1005.9
20260503003827 64 231 3.0 4.0 0.00 0.00 0.00 30 1006.0
20260503002827 65 243 2.0 3.0 0.00 0.00 0.00 29 1006.0
20260503001828 65 235 3.0 4.0 0.00 0.00 0.00 29 1006.0
20260503000826 66 196 3.0 4.0 0.00 0.00 0.00 28 1006.2
20260502235827 65 211 7.0 10.0 0.00 0.00 0.00 28 1006.2
20260502234827 66 238 5.0 8.0 0.00 0.00 0.00 28 1006.6
20260502233828 66 184 10.0 13.0 0.00 0.00 0.00 27 1006.6
20260502232827 68 240 4.0 5.0 0.00 0.00 0.00 27 1006.5
20260502231827 66 226 4.0 5.0 0.00 0.00 0.00 28 1006.7